ROMMA est une association bénévole à but non lucratif. Votre soutien est indispensable : ADHERER à ROMMA ou FAIRE un DON

Chambon - (38, Isère)

Oisans (2460 m)   Longitude: 06° 10' 42" E   Latitude: 45° 01' 32" N Station partenaire n°803
 

Détail journalier du     <<     >>

Température Humidité Vent Dir Rafale Dir. rafale Neige 1 Neige 2
Heure (°C) (%) (km/h) (km/h) (cm) (cm)
01:00 -2.9772SSO7SSO187233
02:00 -2.6751SSO6SSO187233
03:00 -2.9772O7O187233
04:00 -2.6776OSO12OSO187233
05:00 -3.1866OSO10OSO187233
06:00 -3.8875NNE15NNE187233
07:00 -4.8928NNE16NNE187233
08:00 -5.0977N22N187233
09:00 -4.3963N17N186234
10:00 0.002N8N00
11:00 -2.1893OSO9NNO186234
12:00 -2.1936OSO13OSO187233
13:00 -2.2935S15OSO187234
14:00 -2.2954S10OSO188234
15:00 2.2743SO10SO187234
16:00 2.6731SO11SO186234
17:00 0.5841NE9OSO187233
18:00 -1.4954NE11SO187233
19:00 -1.2952NE9SO187233
20:00 -1.7982NE7NE187233
21:00 -2.31002N11ENE187233
22:00 -2.41004NNE14NNE187233
23:00 -2.51004N11N186233
minuit -2.61003NE8NE186233

Graphique du 16-04-2019

 

Serveur OMMA